Tracking 20041 objects as of 22-Nov-2019
Live streaming from Space Station
objects crossing your sky now

COSMOS 841

Track COSMOS 841 now!
10-day predictions
COSMOS 841 is classified as:


NORAD ID: 9022
Int'l Code: 1976-069A
Perigee: 769.9 km
Apogee: 789.4 km
Inclination: 74.0 °
Period: 100.3 minutes
Semi major axis: 7150 km
RCS: 2.1872 m2 (large)
Launch date: July 15, 1976
Source: Commonwealth of Independent States (former USSR) (CIS)
Launch site: PLESETSK MISSILE AND SPACE COMPLEX (PKMTR)
aabbcc
Your satellite tracking list
Your tracking list is empty




NASA's NSSDC Master Catalog

Two Line Element Set (TLE):
1  9022U 76069A   19326.52511309  .00000019  00000-0  15688-4 0  9990
2  9022  74.0453  23.4000 0013632 330.8290  29.2100 14.35772922268346
Source of the keplerian elements: AFSPC